This demonstration page uses our WeatherBlox Daily Observations layout. Learn more.

Left ArrowRight Arrow

40.92945, -100.16068

Hourly Observations for November 6, 2019

Temp ( °F °C ) Dew Point ( °F °C ) Humidity (%) Winds ( mph kmh ) Pressure ( in mb ) Visibility ( mi km ) Precip ( " mm )
12:15 am 00:15 Clear 34 1.1 30 -1.2 85 85 Calm 30.22 1023 10 16.0934 0 0
12:35 am 00:35 Clear 42 5.6 32 0 68 68 WNW 3 6 30.17 1022 10 16.0934 0 0
12:55 am 00:55 Clear 35 1.5 30 -1.3 82 82 WNW 3 6 30.21 1023 10 16.0934 0 0
1:15 am 01:15 Clear 30 -1 28 -2 93 93 Calm 30.24 1024 10 16.0934 0 0
1:35 am 01:35 Clear 30 -1.1 28 -2.4 91 91 Calm 30.24 1024 10 16.0934 0 0
1:55 am 01:55 Clear 30 -1.2 28 -2.4 92 92 Calm 30.24 1024 10 16.0934 0 0
2:15 am 02:15 Clear 31 -0.8 28 -2.2 90 90 Calm 30.23 1024 10 16.0934 0 0
2:35 am 02:35 Clear 31 -0.8 28 -2 92 92 Calm 30.23 1024 10 16.0934 0 0
2:55 am 02:55 Clear 30 -1.2 28 -2.4 92 92 E 3 6 30.23 1024 10 16.0934 0 0
3:15 am 03:15 Clear 29 -1.6 27 -2.7 92 92 Calm 30.23 1024 10 16.0934 0 0
3:35 am 03:35 Clear 29 -1.5 27 -2.6 92 92 Calm 30.23 1024 10 16.0934 0 0
3:55 am 03:55 Clear 29 -1.5 27 -2.9 90 90 Calm 30.22 1023 10 16.0934 0 0
4:15 am 04:15 Clear 29 -1.9 27 -2.7 94 94 Calm 30.23 1024 10 16.0934 0 0
4:35 am 04:35 Clear 29 -1.6 27 -2.7 92 92 Calm 30.22 1023 10 16.0934 0 0
4:55 am 04:55 Clear 28 -2 27 -3 93 93 Calm 30.23 1024 10 16.0934 0 0
5:15 am 05:15 Clear 28 -2.1 26 -3.3 92 92 Calm 30.23 1024 10 16.0934 0 0
5:35 am 05:35 Clear 28 -2 27 -3 93 93 Calm 30.24 1024 10 16.0934 0 0
5:55 am 05:55 Clear 29 -1.9 27 -3 92 92 Calm 30.25 1024 10 16.0934 0 0
6:15 am 06:15 Clear 28 -2.4 26 -3.1 95 95 NE 3 6 30.26 1025 10 16.0934 0 0
6:35 am 06:35 Clear 27 -2.6 26 -3.4 94 94 Calm 30.26 1025 10 16.0934 0 0
6:55 am 06:55 Clear 27 -2.6 26 -3.6 93 93 N 6 9 30.27 1025 10 16.0934 0 0
7:15 am 07:15 Clear 32 0 30 -1 93 93 NNE 10 17 30.26 1025 10 16.0934 0 0
7:35 am 07:35 Partly Cloudy 32 0 31 -0.5 96 96 NNE 9 15 30.28 1025 10 16.0934 0 0
7:55 am 07:55 Cloudy with Mist and Fog 32 0 32 0 100 100 NE 16 26 30.29 1026 1 1.60934 0 0
8:15 am 08:15 Cloudy with Mist and Fog 32 0.1 32 0.1 100 100 NE 14 22 30.3 1026 0.75 1.207005 0 0
8:35 am 08:35 Cloudy with Fog 33 0.5 33 0.5 100 100 NNE 15 24 30.31 1027 0.5 0.80467 0 0
8:55 am 08:55 Cloudy with Mist and Fog 32 0 32 0 100 100 NNE 16 26 30.34 1027 2 3.21868 0 0
9:15 am 09:15 Cloudy with Mist and Fog 31 -0.6 31 -0.7 99 99 NNE 14 22 30.36 1028 2 3.21868 0 0
9:35 am 09:35 Cloudy with Mist and Fog 31 -0.5 31 -0.6 99 99 NNE 15 24 30.36 1028 1.75 2.816345 0 0
9:55 am 09:55 Cloudy with Mist and Fog 31 -0.3 31 -0.5 99 99 NNE 17 28 30.37 1028 3 4.82802 0 0
10:15 am 10:15 Cloudy with Mist and Fog 32 -0.1 31 -0.5 97 97 NNE 20 31 30.37 1028 5 8.0467 0 0
10:35 am 10:35 Cloudy with Mist and Fog 31 -0.3 31 -0.8 96 96 N 24 39 30.38 1029 5 8.0467 0 0
10:55 am 10:55 Cloudy 31 -0.3 30 -1.1 94 94 NNE 18 30 30.39 1029 10 16.0934 0 0
11:15 am 11:15 Cloudy 31 -0.5 30 -1.3 94 94 NNE 22 35 30.4 1030 10 16.0934 0 0
11:35 am 11:35 Cloudy 32 -0.1 29 -1.5 90 90 NNE 20 31 30.41 1030 10 16.0934 0 0
11:55 am 11:55 Cloudy 32 0 29 -1.5 90 90 NNE 21 33 30.41 1030 10 16.0934 0 0
12:15 pm 12:15 Cloudy 31 -0.3 28 -2 88 88 NNE 21 33 30.42 1030 10 16.0934 0 0
12:35 pm 12:35 Cloudy 31 -0.4 28 -2.3 87 87 NNE 22 35 30.42 1030 10 16.0934 0 0
12:55 pm 12:55 Cloudy 31 -0.5 28 -2.5 87 87 NNE 22 35 30.43 1031 10 16.0934 0 0
1:15 pm 13:15 Cloudy 31 -0.5 27 -2.6 86 86 NNE 20 31 30.42 1030 10 16.0934 0 0
1:35 pm 13:35 Cloudy 31 -0.4 27 -3 83 83 NNE 18 30 30.42 1030 10 16.0934 0 0
1:55 pm 13:55 Cloudy 32 0 26 -3.5 78 78 NNE 23 37 30.42 1030 10 16.0934 0 0
2:15 pm 14:15 Cloudy 33 0.4 25 -3.7 74 74 NNE 20 31 30.42 1030 10 16.0934 0 0
2:35 pm 14:35 Cloudy 33 0.5 25 -3.9 73 73 NNE 16 26 30.43 1031 10 16.0934 0 0
2:55 pm 14:55 Cloudy 33 0.5 25 -4 72 72 NNE 22 35 30.43 1031 10 16.0934 0 0
3:15 pm 15:15 Cloudy 33 0.7 25 -4 71 71 NNE 21 33 30.44 1031 10 16.0934 0 0
3:35 pm 15:35 Cloudy 33 0.7 25 -4.1 71 71 NNE 18 30 30.45 1031 10 16.0934 0 0
3:55 pm 15:55 Cloudy 33 0.5 24 -4.3 71 71 NNE 18 30 30.46 1032 10 16.0934 0 0
4:15 pm 16:15 Cloudy 33 0.4 24 -4.5 70 70 NNE 20 31 30.46 1032 10 16.0934 0 0
4:35 pm 16:35 Cloudy 32 0.2 24 -4.6 70 70 NNE 17 28 30.49 1032 10 16.0934 0 0
4:55 pm 16:55 Cloudy 32 0 23 -5 69 69 NNE 21 33 30.48 1032 10 16.0934 0 0
5:15 pm 17:15 Cloudy 32 -0.1 23 -5 70 70 NNE 21 33 30.5 1033 10 16.0934 0 0
5:35 pm 17:35 Cloudy 31 -0.3 23 -5 71 71 NNE 17 28 30.5 1033 10 16.0934 0 0
5:55 pm 17:55 Cloudy 31 -0.6 23 -5.2 71 71 NNE 17 28 30.51 1033 10 16.0934 0 0
6:15 pm 18:15 Cloudy 30 -1 23 -5.2 73 73 NNE 14 22 30.54 1034 10 16.0934 0 0
6:35 pm 18:35 Cloudy 30 -1 23 -5.2 73 73 NNE 17 28 30.55 1034 10 16.0934 0 0
6:55 pm 18:55 Cloudy 30 -1.1 23 -5 75 75 NNE 14 22 30.56 1035 10 16.0934 0 0
7:15 pm 19:15 Cloudy 30 -1.2 23 -5.1 75 75 NE 17 28 30.57 1035 10 16.0934 0 0
7:35 pm 19:35 Cloudy 29 -1.5 23 -5.1 77 77 NNE 15 24 30.58 1036 10 16.0934 0 0
7:55 pm 19:55 Cloudy 29 -1.5 23 -4.9 78 78 NNE 12 19 30.59 1036 10 16.0934 0 0
8:15 pm 20:15 Cloudy 29 -1.7 23 -5.1 78 78 NNE 17 28 30.61 1036 10 16.0934 0 0
8:35 pm 20:35 Cloudy 28 -2 23 -4.8 81 81 NNE 15 24 30.62 1037 10 16.0934 0 0
8:55 pm 20:55 Cloudy 28 -2.5 24 -4.7 85 85 NNE 14 22 30.63 1037 10 16.0934 0 0
9:15 pm 21:15 Cloudy 27 -3 23 -4.9 87 87 N 17 28 30.65 1038 10 16.0934 0 0
9:35 pm 21:35 Cloudy 26 -3.5 22 -5.6 86 86 N 16 26 30.65 1038 10 16.0934 0 0
9:55 pm 21:55 Cloudy 25 -3.7 21 -6 84 84 N 16 26 30.67 1038 10 16.0934 0 0
10:15 pm 22:15 Cloudy 25 -4 21 -6.1 86 86 NNE 14 22 30.68 1039 10 16.0934 0 0
10:35 pm 22:35 Cloudy 25 -4.1 21 -6.3 85 85 N 15 24 30.69 1039 10 16.0934 0 0
10:55 pm 22:55 Cloudy 24 -4.5 20 -6.6 85 85 N 15 24 30.7 1039 10 16.0934 0 0
11:15 pm 23:15 Cloudy 24 -4.6 20 -6.9 84 84 NNE 13 20 30.71 1040 10 16.0934 0 0
11:35 pm 23:35 Cloudy 24 -4.7 20 -6.9 85 85 N 16 26 30.71 1040 10 16.0934 0 0
11:55 pm 23:55 Cloudy 24 -4.7 19 -7.1 84 84 N 14 22 30.71 1040 10 16.0934 0 0

Powered by AerisWeather